Time,TemperatureF,DewpointF,PressureIn,WindDirection,WindDirectionDegrees,WindSpeedMPH,WindSpeedGustMPH,Humidity,HourlyPrecipIn,Conditions,Clouds,dailyrainin,SoftwareType,DateUTC
2013-08-03 00:06:00,84.4,68.5,29.84,SSE,157,2.7,-999.0,59,-99.99,,,0.00,Acu-Link.com,2013-08-03 05:06:00,
2013-08-03 00:21:00,83.7,68.3,29.84,SE,135,3.2,-999.0,60,-99.99,,,0.00,Acu-Link.com,2013-08-03 05:21:00,
2013-08-03 00:36:00,83.1,67.8,29.84,NNE,22,2.7,-999.0,60,-99.99,,,0.00,Acu-Link.com,2013-08-03 05:36:00,
2013-08-03 00:52:00,82.8,67.5,29.85,NE,45,3.2,-999.0,60,-99.99,,,0.00,Acu-Link.com,2013-08-03 05:52:00,
2013-08-03 01:07:00,82.2,66.9,29.85,SSE,157,5.3,-999.0,60,-99.99,,,0.00,Acu-Link.com,2013-08-03 06:07:00,
2013-08-03 01:22:00,81.7,66.9,29.85,ENE,67,3.7,-999.0,61,-99.99,,,0.00,Acu-Link.com,2013-08-03 06:22:00,
2013-08-03 01:37:00,81.3,67.0,29.85,South,180,3.7,-999.0,62,-99.99,,,0.00,Acu-Link.com,2013-08-03 06:37:00,
2013-08-03 01:53:00,80.8,67.5,29.85,ESE,112,3.7,-999.0,64,-99.99,,,0.00,Acu-Link.com,2013-08-03 06:53:00,
2013-08-03 02:08:00,80.2,68.2,29.85,SSE,157,2.7,-999.0,67,-99.99,,,0.00,Acu-Link.com,2013-08-03 07:08:00,
2013-08-03 02:24:00,79.7,68.6,29.85,West,270,2.7,-999.0,69,-99.99,,,0.00,Acu-Link.com,2013-08-03 07:24:00,
2013-08-03 02:39:00,79.5,69.3,29.85,East,90,3.2,-999.0,71,-99.99,,,0.00,Acu-Link.com,2013-08-03 07:39:00,
2013-08-03 02:54:00,79.0,69.2,29.85,SSW,202,2.7,-999.0,72,-99.99,,,0.00,Acu-Link.com,2013-08-03 07:54:00,
2013-08-03 03:10:00,78.8,69.8,29.85,South,180,2.7,-999.0,74,-99.99,,,0.00,Acu-Link.com,2013-08-03 08:10:00,
2013-08-03 03:25:00,78.6,70.0,29.85,ESE,112,3.2,-999.0,75,-99.99,,,0.00,Acu-Link.com,2013-08-03 08:25:00,
2013-08-03 03:40:00,78.3,70.1,29.85,SE,135,3.2,-999.0,76,-99.99,,,0.00,Acu-Link.com,2013-08-03 08:40:00,
2013-08-03 03:55:00,77.7,70.3,29.84,SE,135,3.2,-999.0,78,-99.99,,,0.00,Acu-Link.com,2013-08-03 08:55:00,
2013-08-03 04:10:00,77.4,70.4,29.85,SSE,157,2.7,-999.0,79,-99.99,,,0.00,Acu-Link.com,2013-08-03 09:10:00,
2013-08-03 04:25:00,77.0,70.7,29.85,ESE,112,2.2,-999.0,81,-99.99,,,0.00,Acu-Link.com,2013-08-03 09:25:00,
2013-08-03 04:41:00,76.6,70.7,29.86,SW,225,4.7,-999.0,82,-99.99,,,0.00,Acu-Link.com,2013-08-03 09:41:00,
2013-08-03 04:56:00,76.5,70.9,29.86,SSE,157,1.7,-999.0,83,-99.99,,,0.00,Acu-Link.com,2013-08-03 09:56:00,
2013-08-03 05:11:00,76.1,71.3,29.85,West,270,3.2,-999.0,85,-99.99,,,0.00,Acu-Link.com,2013-08-03 10:11:00,
2013-08-03 05:26:00,75.7,71.2,29.86,South,180,3.2,-999.0,86,-99.99,,,0.00,Acu-Link.com,2013-08-03 10:26:00,
2013-08-03 05:42:00,75.6,71.4,29.86,SW,225,2.2,-999.0,87,-99.99,,,0.00,Acu-Link.com,2013-08-03 10:42:00,
2013-08-03 05:57:00,75.7,71.5,29.86,SW,225,4.7,-999.0,87,-99.99,,,0.00,Acu-Link.com,2013-08-03 10:57:00,
2013-08-03 06:12:00,75.7,71.5,29.86,SW,225,3.2,-999.0,87,-99.99,,,0.00,Acu-Link.com,2013-08-03 11:12:00,
2013-08-03 06:27:00,75.4,71.3,29.86,SSW,202,2.2,-999.0,87,-99.99,,,0.00,Acu-Link.com,2013-08-03 11:27:00,
2013-08-03 06:42:00,75.2,71.4,29.86,West,270,1.7,-999.0,88,-99.99,,,0.00,Acu-Link.com,2013-08-03 11:42:00,
2013-08-03 06:58:00,75.4,71.6,29.86,SW,225,0.0,-999.0,88,-99.99,,,0.00,Acu-Link.com,2013-08-03 11:58:00,
2013-08-03 07:13:00,75.2,71.4,29.86,WSW,247,1.1,-999.0,88,-99.99,,,0.00,Acu-Link.com,2013-08-03 12:13:00,
2013-08-03 07:28:00,75.9,71.7,29.87,ESE,112,2.2,-999.0,87,-99.99,,,0.00,Acu-Link.com,2013-08-03 12:28:00,
2013-08-03 07:43:00,76.6,71.7,29.86,West,270,2.2,-999.0,85,-99.99,,,0.00,Acu-Link.com,2013-08-03 12:43:00,
2013-08-03 07:59:00,77.9,72.3,29.86,South,180,3.7,-999.0,83,-99.99,,,0.00,Acu-Link.com,2013-08-03 12:59:00,
2013-08-03 08:14:00,80.2,72.3,29.87,WSW,247,3.2,-999.0,77,-99.99,,,0.00,Acu-Link.com,2013-08-03 13:14:00,
2013-08-03 08:29:00,82.8,72.8,29.87,SSW,202,2.2,-999.0,72,-99.99,,,0.00,Acu-Link.com,2013-08-03 13:29:00,
2013-08-03 08:45:00,83.7,72.4,29.88,North,0,2.2,-999.0,69,-99.99,,,0.00,Acu-Link.com,2013-08-03 13:45:00,
2013-08-03 08:59:00,85.6,72.0,29.88,West,270,3.2,-999.0,64,-99.99,,,0.00,Acu-Link.com,2013-08-03 13:59:00,
2013-08-03 09:15:00,86.9,71.8,29.88,South,180,3.7,-999.0,61,-99.99,,,0.00,Acu-Link.com,2013-08-03 14:15:00,
2013-08-03 09:30:00,88.2,72.0,29.88,NW,315,4.7,-999.0,59,-99.99,,,0.00,Acu-Link.com,2013-08-03 14:30:00,
2013-08-03 09:45:00,90.5,72.1,29.88,South,180,2.7,-999.0,55,-99.99,,,0.00,Acu-Link.com,2013-08-03 14:45:00,
2013-08-03 10:01:00,90.9,71.4,29.88,South,180,6.8,-999.0,53,-99.99,,,0.00,Acu-Link.com,2013-08-03 15:01:00,
2013-08-03 10:16:00,92.5,70.5,29.89,South,180,3.7,-999.0,49,-99.99,,,0.00,Acu-Link.com,2013-08-03 15:16:00,
2013-08-03 10:31:00,94.5,71.1,29.89,West,270,4.7,-999.0,47,-99.99,,,0.00,Acu-Link.com,2013-08-03 15:31:00,
2013-08-03 10:46:00,95.5,71.4,29.89,West,270,3.7,-999.0,46,-99.99,,,0.00,Acu-Link.com,2013-08-03 15:46:00,
2013-08-03 11:01:00,89.6,69.6,29.89,SSE,157,4.7,-999.0,52,-99.99,,,0.00,Acu-Link.com,2013-08-03 16:01:00,
2013-08-03 11:16:00,90.0,68.8,29.89,SW,225,2.2,-999.0,50,-99.99,,,0.00,Acu-Link.com,2013-08-03 16:16:00,
2013-08-03 11:32:00,91.0,69.7,29.90,ESE,112,3.2,-999.0,50,-99.99,,,0.00,Acu-Link.com,2013-08-03 16:32:00,
2013-08-03 11:47:00,92.8,70.2,29.90,ESE,112,2.7,-999.0,48,-99.99,,,0.00,Acu-Link.com,2013-08-03 16:47:00,
2013-08-03 12:02:00,93.2,70.5,29.90,West,270,5.3,-999.0,48,-99.99,,,0.00,Acu-Link.com,2013-08-03 17:02:00,
2013-08-03 12:18:00,93.9,68.6,29.89,SE,135,4.2,-999.0,44,-99.99,,,0.00,Acu-Link.com,2013-08-03 17:18:00,
2013-08-03 12:33:00,94.5,67.1,29.88,ESE,112,6.3,-999.0,41,-99.99,,,0.00,Acu-Link.com,2013-08-03 17:33:00,
2013-08-03 12:48:00,94.8,67.4,29.89,WNW,292,6.8,-999.0,41,-99.99,,,0.00,Acu-Link.com,2013-08-03 17:48:00,
2013-08-03 13:03:00,94.1,66.8,29.88,ESE,112,3.2,-999.0,41,-99.99,,,0.00,Acu-Link.com,2013-08-03 18:03:00,
2013-08-03 13:18:00,95.7,66.0,29.88,SE,135,1.7,-999.0,38,-99.99,,,0.00,Acu-Link.com,2013-08-03 18:18:00,
2013-08-03 13:34:00,96.4,66.6,29.87,West,270,4.7,-999.0,38,-99.99,,,0.00,Acu-Link.com,2013-08-03 18:34:00,
2013-08-03 13:49:00,97.9,65.5,29.87,South,180,6.3,-999.0,35,-99.99,,,0.00,Acu-Link.com,2013-08-03 18:49:00,
2013-08-03 14:04:00,99.0,67.3,29.86,WNW,292,3.7,-999.0,36,-99.99,,,0.00,Acu-Link.com,2013-08-03 19:04:00,
2013-08-03 14:19:00,97.2,65.7,29.86,ESE,112,2.2,-999.0,36,-99.99,,,0.00,Acu-Link.com,2013-08-03 19:19:00,
2013-08-03 14:35:00,98.2,66.6,29.85,ESE,112,3.7,-999.0,36,-99.99,,,0.00,Acu-Link.com,2013-08-03 19:35:00,
2013-08-03 14:50:00,97.5,66.0,29.85,SE,135,3.7,-999.0,36,-99.99,,,0.00,Acu-Link.com,2013-08-03 19:50:00,
2013-08-03 15:05:00,99.1,64.9,29.84,East,90,4.2,-999.0,33,-99.99,,,0.00,Acu-Link.com,2013-08-03 20:05:00,
2013-08-03 15:20:00,99.9,65.6,29.84,SE,135,6.8,-999.0,33,-99.99,,,0.00,Acu-Link.com,2013-08-03 20:20:00,
2013-08-03 15:36:00,98.8,65.5,29.84,SE,135,2.7,-999.0,34,-99.99,,,0.00,Acu-Link.com,2013-08-03 20:36:00,
2013-08-03 15:51:00,99.1,64.0,29.83,ESE,112,10.4,-999.0,32,-99.99,,,0.00,Acu-Link.com,2013-08-03 20:51:00,
2013-08-03 16:21:00,98.4,64.3,29.82,SSE,157,2.2,-999.0,33,-99.99,,,0.00,Acu-Link.com,2013-08-03 21:21:00,
2013-08-03 16:52:00,99.0,64.8,29.81,SE,135,3.7,-999.0,33,-99.99,,,0.00,Acu-Link.com,2013-08-03 21:52:00,
2013-08-03 17:07:00,98.6,65.3,29.82,SSE,157,4.2,-999.0,34,-99.99,,,0.00,Acu-Link.com,2013-08-03 22:07:00,
2013-08-03 17:22:00,98.2,65.8,29.83,ESE,112,6.8,-999.0,35,-99.99,,,0.00,Acu-Link.com,2013-08-03 22:22:00,
2013-08-03 17:37:00,98.8,65.5,29.83,ESE,112,6.3,-999.0,34,-99.99,,,0.00,Acu-Link.com,2013-08-03 22:37:00,
2013-08-03 17:52:00,98.4,64.3,29.82,SSE,157,2.7,-999.0,33,-99.99,,,0.00,Acu-Link.com,2013-08-03 22:52:00,
2013-08-03 18:07:00,97.7,64.5,29.82,East,90,4.7,-999.0,34,-99.99,,,0.00,Acu-Link.com,2013-08-03 23:07:00,
2013-08-03 18:22:00,98.1,64.0,29.82,East,90,4.2,-999.0,33,-99.99,,,0.00,Acu-Link.com,2013-08-03 23:22:00,
2013-08-03 18:38:00,97.5,64.4,29.81,SW,225,2.7,-999.0,34,-99.99,,,0.00,Acu-Link.com,2013-08-03 23:38:00,
2013-08-03 18:53:00,98.6,64.5,29.82,East,90,5.3,-999.0,33,-99.99,,,0.00,Acu-Link.com,2013-08-03 23:53:00,
2013-08-03 19:08:00,97.2,64.1,29.81,SE,135,6.8,-999.0,34,-99.99,,,0.00,Acu-Link.com,2013-08-04 00:08:00,
2013-08-03 19:23:00,96.4,63.4,29.82,SSE,157,4.2,-999.0,34,-99.99,,,0.00,Acu-Link.com,2013-08-04 00:23:00,
2013-08-03 19:38:00,95.7,64.4,29.82,ESE,112,2.7,-999.0,36,-99.99,,,0.00,Acu-Link.com,2013-08-04 00:38:00,
2013-08-03 19:54:00,94.3,64.0,29.82,ESE,112,3.2,-999.0,37,-99.99,,,0.00,Acu-Link.com,2013-08-04 00:54:00,
2013-08-03 20:09:00,92.8,64.2,29.82,ESE,112,2.2,-999.0,39,-99.99,,,0.00,Acu-Link.com,2013-08-04 01:09:00,
2013-08-03 20:24:00,91.6,63.8,29.82,ESE,112,1.7,-999.0,40,-99.99,,,0.00,Acu-Link.com,2013-08-04 01:24:00,
2013-08-03 20:40:00,90.1,63.9,29.83,ESE,112,1.1,-999.0,42,-99.99,,,0.00,Acu-Link.com,2013-08-04 01:40:00,
2013-08-03 20:55:00,88.5,64.4,29.83,ESE,112,0.0,-999.0,45,-99.99,,,0.00,Acu-Link.com,2013-08-04 01:55:00,
2013-08-03 21:10:00,87.4,64.0,29.83,ESE,112,1.7,-999.0,46,-99.99,,,0.00,Acu-Link.com,2013-08-04 02:10:00,
2013-08-03 21:26:00,86.9,64.8,29.84,ESE,112,1.7,-999.0,48,-99.99,,,0.00,Acu-Link.com,2013-08-04 02:26:00,
2013-08-03 21:41:00,86.2,64.8,29.84,East,90,2.2,-999.0,49,-99.99,,,0.00,Acu-Link.com,2013-08-04 02:41:00,
2013-08-03 21:56:00,85.6,64.8,29.84,ESE,112,2.7,-999.0,50,-99.99,,,0.00,Acu-Link.com,2013-08-04 02:56:00,
2013-08-03 22:11:00,85.6,64.8,29.85,ESE,112,4.2,-999.0,50,-99.99,,,0.00,Acu-Link.com,2013-08-04 03:11:00,
2013-08-03 22:57:00,87.1,68.9,29.87,SE,135,4.7,-999.0,55,-99.99,,,0.00,Acu-Link.com,2013-08-04 03:57:00,
2013-08-03 23:12:00,86.9,69.3,29.88,SE,135,4.2,-999.0,56,-99.99,,,0.00,Acu-Link.com,2013-08-04 04:12:00,
2013-08-03 23:27:00,86.5,69.9,29.89,South,180,3.2,-999.0,58,-99.99,,,0.00,Acu-Link.com,2013-08-04 04:27:00,
2013-08-03 23:43:00,86.0,70.5,29.89,South,180,3.7,-999.0,60,-99.99,,,0.00,Acu-Link.com,2013-08-04 04:43:00,
2013-08-03 23:58:00,85.5,71.0,29.90,SSE,157,6.8,-999.0,62,-99.99,,,0.00,Acu-Link.com,2013-08-04 04:58:00,